1536667200.11,20149,18.0,74558.0,6.75,1.37,-0.23,0,*6E
1536667201.3,20150,18.0,74564.0,6.75,-1.21,-3.23,0,*7F
1536667202.49,20151,18.0,74554.5,6.75,-1.63,-3.75,0,*7B
1536667203.73,20152,18.0,74556.0,6.71,-2.47,-4.77,0,*7C
1536667204.96,20153,18.0,74552.5,6.67,-3.27,-5.15,0,*78
1536667206.17,20154,18.0,74556.8,6.63,-2.83,-4.89,0,*70
1536667207.37,20155,18.0,74562.5,6.63,-1.59,-3.47,0,*70
1536667208.58,20156,18.0,74558.5,6.61,-2.35,-4.17,0,*7A
1536667209.8,20157,18.06,74566.5,6.59,-1.75,-3.51,0,*72
1536667210.99,20158,18.0,74562.8,6.59,-2.35,-4.29,0,*72
1536667212.21,20159,18.0,74564.0,6.53,-3.95,-6.05,0,*7E
1536667213.42,20160,18.0,74564.8,6.49,-3.07,-4.89,0,*72
1536667214.64,20161,18.0,74560.3,6.49,-1.87,-3.75,0,*7D
1536667215.88,20162,18.0,74560.5,6.49,-0.97,-2.59,0,*41
1536667217.1,20163,18.0,74560.5,6.51,0.75,-0.81,0,*5F
1536667218.3,20164,18.0,74570.0,6.51,0.97,-0.61,0,*5A
1536667219.54,20165,18.0,74560.8,6.53,-1.09,-2.87,0,*78
1536667220.8,20166,18.0,74566.0,6.53,-1.87,-3.71,0,*75
1536667222.03,20167,18.0,74572.3,6.53,-1.79,-3.51,0,*77
1536667223.24,20168,18.0,74564.8,6.51,-1.33,-3.19,0,*78
1536667224.43,20169,18.0,74566.0,6.49,-2.35,-4.25,0,*7D
1536667225.65,20170,18.0,74568.0,6.49,-2.51,-4.29,0,*7B
1536667226.86,20171,18.0,74566.3,6.47,-1.63,-3.31,0,*78
1536667228.09,20172,18.0,74568.5,6.45,-1.87,-3.59,0,*7D
1536667229.32,20173,18.0,74564.3,6.45,-1.91,-3.67,0,*76
1536667230.53,20174,18.0,74568.3,6.45,-0.45,-2.07,0,*4E
1536667231.73,20175,18.0,74572.5,6.45,0.21,-1.33,0,*64
1536667233.0,20176,18.0,74578.5,6.47,-1.13,-2.75,0,*79
1536667234.21,20177,18.06,74574.5,6.47,-1.33,-3.03,0,*7A
1536667235.39,20178,18.0,74576.8,6.45,-1.51,-3.19,0,*78
1536667236.63,20179,18.0,74578.8,6.47,-0.41,-1.91,0,*49
1536667237.83,20180,18.0,74576.3,6.49,-0.29,-1.91,0,*4F
1536667239.02,20181,18.0,74576.0,6.49,-1.51,-3.39,0,*70
1536667240.23,20182,18.0,74580.5,6.49,-2.87,-4.77,0,*76
1536667241.46,20183,18.0,74574.3,6.45,-2.03,-3.55,0,*70
1536667242.65,20184,18.0,74572.0,6.45,-0.69,-2.31,0,*4A
1536667243.89,20185,18.0,74578.3,6.47,-0.57,-2.07,0,*41
1536667245.13,20186,18.0,74580.3,6.47,0.33,-1.05,0,*6C
1536667246.35,20187,18.0,74578.5,6.49,1.21,-0.15,0,*61
1536667247.56,20188,18.0,74566.0,6.49,2.27,0.87,0,*4D
1536667248.78,20189,18.0,74554.8,6.57,2.61,1.29,0,*74
1536667250.03,20190,18.0,74566.0,6.65,2.89,1.51,0,*74
1536667251.28,20191,18.0,74572.8,6.69,3.23,1.71,0,*7A
1536667252.53,20192,18.0,74562.0,6.73,3.03,1.63,0,*73
1536667253.75,20193,18.0,74556.0,6.79,3.53,2.13,0,*79
1536667254.98,20194,18.0,74544.5,6.85,3.07,1.71,0,*7B
1536667256.23,20195,18.0,74588.0,6.87,3.49,2.17,0,*71
1536667257.49,20196,18.0,74584.8,6.91,3.07,1.71,0,*7C
1536667258.74,20197,18.0,74584.0,6.95,2.59,1.09,0,*7C
1536667259.98,20198,18.0,74590.8,6.99,-0.29,-1.83,0,*48
1536667261.19,20199,18.0,74594.0,6.99,-0.73,-2.43,0,*49
1536667262.4,20200,18.0,74574.8,6.97,-1.13,-2.83,0,*7F
1536667263.57,20201,18.0,74564.0,6.93,0.09,-1.29,0,*5E
1536667264.77,20202,18.0,74578.5,6.93,1.71,0.43,0,*43
1536667265.98,20203,18.0,74576.0,6.95,1.01,-0.37,0,*6D
1536667267.17,20204,18.0,74572.0,6.97,0.87,-0.61,0,*54
1536667268.39,20205,18.0,74572.8,6.97,0.51,-0.89,0,*58
1536667269.56,20206,18.0,74576.0,6.97,0.97,-0.61,0,*57
1536667270.76,20207,18.0,74580.0,6.97,1.75,0.51,0,*45
1536667271.98,20208,18.0,74570.5,7.05,1.43,0.21,0,*42
1536667273.21,20209,18.0,74572.8,7.05,2.39,1.29,0,*74
1536667274.43,20210,18.0,74582.3,7.09,2.81,1.67,0,*79
1536667275.63,20211,18.0,74576.5,7.09,2.91,1.93,0,*72
1536667276.8,20212,18.0,74556.5,7.13,2.35,1.41,0,*7B
1536667278.02,20213,18.0,74558.3,7.17,2.55,1.59,0,*71
1536667279.22,20214,18.0,74572.5,7.17,2.99,2.09,0,*70
1536667280.45,20215,18.0,74582.5,7.21,2.43,1.13,0,*7B
1536667281.66,20216,18.0,74570.3,7.21,0.79,-0.33,0,*5D
1536667282.91,20217,18.0,74566.8,7.19,0.25,-1.47,0,*6C
1536667284.12,20218,18.0,74576.5,7.21,-0.11,-1.09,0,*48
1536667285.34,20219,18.0,74574.0,7.19,0.51,-0.49,0,*5E
1536667286.58,20220,18.0,74582.8,7.19,-0.73,-1.95,0,*49
1536667287.81,20221,18.0,74574.3,7.19,-1.09,-2.15,0,*7F
1536667289.09,20222,18.0,74572.8,7.15,-1.05,-1.99,0,*7B
1536667290.29,20223,18.0,74576.8,7.13,-1.17,-2.31,0,*7E
1536667291.5,20224,18.0,74578.0,7.11,0.05,-0.93,0,*6E
1536667292.75,20225,18.0,74580.3,7.11,-0.93,-1.95,0,*4A
1536667293.99,20226,18.0,74578.5,7.11,-0.81,-1.91,0,*4E
1536667295.23,20227,18.0,74582.5,7.07,-1.63,-2.75,0,*7C
1536667296.46,20228,18.0,74584.0,7.07,-0.27,-1.21,0,*40
1536667297.69,20229,18.0,74586.0,7.03,-0.03,-0.89,0,*40
1536667298.9,20230,18.0,74582.5,7.05,-1.99,-3.15,0,*7A
1536667300.11,20231,18.0,74584.3,6.99,-2.31,-3.35,0,*7C
1536667301.34,20232,18.0,74584.0,6.97,-2.59,-3.63,0,*7C
1536667302.58,20233,18.0,74588.0,6.95,-1.99,-3.03,0,*76
1536667303.8,20234,18.0,74588.5,6.93,-2.03,-3.03,0,*77
1536667305.01,20235,18.0,74592.0,6.89,-2.43,-3.59,0,*76
1536667306.22,20236,18.0,74592.0,6.87,-2.35,-3.39,0,*7C
1536667307.43,20237,18.0,74580.3,6.85,-0.49,-1.47,0,*4D
1536667308.66,20238,18.0,74574.8,6.87,0.87,-0.11,0,*5D
1536667309.91,20239,18.0,74584.8,6.87,2.69,1.85,0,*7F
1536667311.18,20240,18.0,74568.3,6.91,3.07,2.25,0,*76
1536667312.44,20241,18.0,74572.5,6.95,3.15,2.39,0,*7D
1536667313.67,20242,18.0,74582.8,7.03,3.89,3.11,0,*7E
1536667314.89,20243,18.0,74582.3,7.09,3.97,3.11,0,*7A
1536667316.12,20244,18.0,74580.3,7.13,3.23,2.39,0,*72
1536667317.37,20245,18.0,74572.8,7.15,3.33,2.47,0,*7D
1536667318.55,20246,18.06,74572.0,7.21,2.31,1.41,0,*7F
1536667319.78,20247,18.0,74572.3,7.25,3.33,2.51,0,*7B
1536667321.03,20248,18.0,74586.8,7.27,2.89,2.05,0,*77
1536667322.23,20249,18.0,74568.5,7.29,1.05,0.13,0,*4A
1536667323.43,20250,18.0,74560.8,7.29,-0.11,-0.97,0,*7A
1536667324.64,20251,18.0,74566.3,7.29,1.05,0.21,0,*42
1536667325.87,20252,18.0,74560.3,7.29,1.93,1.17,0,*7A
1536667327.08,20253,18.0,74560.8,7.31,3.25,2.65,0,*7B
1536667328.33,20254,18.0,74566.0,7.35,3.33,2.81,0,*75
1536667329.53,20255,18.0,74570.3,7.37,3.63,3.19,0,*73
1536667330.76,20256,18.0,74572.0,7.39,3.37,2.95,0,*7A
1536667331.98,20257,18.0,74580.3,7.43,3.19,2.65,0,*75
1536667333.2,20258,18.0,74580.8,7.47,0.71,-0.53,0,*59
1536667334.41,20259,18.0,74588.5,7.47,-1.63,-2.43,0,*74
1536667335.6,20260,18.0,74590.5,7.41,-1.21,-1.59,0,*76
1536667336.77,20261,18.0,74588.3,7.41,-0.15,-0.37,0,*78
1536667337.95,20262,18.0,74582.3,7.37,-0.03,-0.53,0,*4F
1536667339.15,20263,18.0,74580.3,7.37,-0.29,-0.89,0,*71
1536667340.37,20264,18.0,74580.0,7.35,-0.77,-1.21,0,*4C
1536667341.59,20265,18.0,74576.5,7.35,0.33,-0.19,0,*5A
1536667342.79,20266,18.0,74574.5,7.33,0.29,-0.11,0,*5C
1536667344.02,20267,18.0,74572.5,7.29,2.01,1.67,0,*73
1536667345.25,20268,18.0,74568.8,7.31,2.77,2.61,0,*71
1536667346.49,20269,18.0,74554.8,7.33,3.07,2.89,0,*72
1536667347.72,20270,18.0,74564.8,7.35,3.89,3.11,0,*7A
1536667348.94,20271,18.0,74570.5,7.39,3.59,2.85,0,*76
1536667350.2,20272,18.0,74584.8,7.39,2.51,2.13,0,*73
1536667351.45,20273,18.0,74576.5,7.43,2.77,2.05,0,*7C
1536667352.7,20274,18.0,74568.0,7.49,2.73,2.09,0,*79
1536667353.93,20275,18.0,74574.3,7.49,3.19,2.61,0,*7B
1536667355.16,20276,18.0,74576.5,7.51,2.43,1.59,0,*77
1536667356.37,20277,18.0,74584.0,7.55,-0.15,-1.01,0,*4E
1536667357.61,20278,18.0,74582.3,7.51,-1.05,-1.87,0,*7B
1536667358.8,20279,18.0,74590.5,7.51,-0.65,-1.17,0,*44
1536667360.02,20280,18.0,74568.8,7.47,-0.33,-0.85,0,*7C
1536667361.22,20281,18.0,74572.3,7.47,-0.11,-0.57,0,*72
1536667362.45,20282,18.0,74572.0,7.43,-0.27,-0.45,0,*73
1536667363.66,20283,18.0,74570.0,7.41,0.75,0.75,0,*74
1536667364.85,20284,18.0,74572.8,7.41,0.91,0.97,0,*75
1536667366.07,20285,18.0,74574.0,7.41,2.21,2.59,0,*7D
1536667367.32,20286,18.0,74572.3,7.43,3.53,4.01,0,*73
1536667368.56,20287,18.0,74572.8,7.49,4.05,4.37,0,*79
1536667369.76,20288,18.0,74570.0,7.49,2.27,2.35,0,*74
1536667371.02,20289,18.0,74574.0,7.49,2.39,1.97,0,*71
1536667372.27,20290,18.0,74576.3,7.47,1.63,0.91,0,*4C
1536667373.48,20291,18.0,74582.5,7.47,-0.69,-1.21,0,*4C
1536667374.71,20292,18.0,74580.3,7.43,-0.73,-1.13,0,*41
1536667375.92,20293,18.0,74586.0,7.41,0.41,0.37,0,*74
1536667377.12,20294,18.0,74580.3,7.41,0.67,0.67,0,*72
1536667378.35,20295,18.0,74578.8,7.37,-0.89,-0.89,0,*72
1536667379.59,20296,18.0,74580.3,7.35,0.83,1.25,0,*4E
1536667380.8,20297,18.0,74572.3,7.35,1.41,1.79,0,*79
1536667382.01,20298,18.0,74562.3,7.37,0.21,0.33,0,*7C
1536667383.25,20299,18.0,74558.5,7.35,0.51,0.71,0,*7E
1536667384.48,20300,18.0,74578.8,7.35,1.63,1.75,0,*7A
1536667385.74,20301,18.0,74570.5,7.35,1.29,1.51,0,*73
1536667387.0,20302,18.0,74570.0,7.35,2.01,2.17,0,*78
1536667388.23,20303,18.0,74570.8,7.35,2.95,3.07,0,*74
1536667389.45,20304,18.0,74574.5,7.35,3.63,3.67,0,*7D
1536667390.71,20305,18.0,74572.5,7.39,3.67,3.67,0,*74
1536667391.89,20306,18.0,74576.8,7.41,3.29,3.29,0,*78
1536667393.14,20307,18.0,74580.0,7.43,3.75,3.71,0,*7F
1536667394.34,20308,18.0,74576.0,7.43,3.59,3.63,0,*7D
1536667395.57,20309,18.0,74572.5,7.49,1.79,1.67,0,*70
1536667396.77,20310,18.0,74584.5,7.49,1.41,1.05,0,*77
1536667398.0,20311,18.0,74580.0,7.49,1.05,0.83,0,*49
1536667399.26,20312,18.0,74572.5,7.47,1.29,1.13,0,*72
1536667400.51,20313,18.0,74576.0,7.47,2.73,2.59,0,*72
1536667401.74,20314,18.0,74570.5,7.49,2.51,2.35,0,*71
1536667402.99,20315,18.0,74566.5,7.49,3.19,2.85,0,*76
1536667404.24,20316,18.0,74564.3,7.53,2.09,1.93,0,*7A
1536667405.47,20317,18.0,74578.5,7.53,2.91,2.69,0,*7C
1536667406.73,20318,18.0,74578.8,7.53,2.59,2.43,0,*7F
1536667407.96,20319,18.0,74566.0,7.53,1.83,1.63,0,*7B
1536667409.22,20320,18.0,74578.3,7.53,0.91,0.75,0,*75
1536667410.48,20321,18.06,74590.3,7.53,1.71,1.71,0,*7E
1536667411.73,20322,18.0,74582.8,7.53,1.43,1.21,0,*79
1536667412.91,20323,18.0,74568.5,7.51,-0.61,-0.81,0,*70
1536667414.11,20324,18.0,74570.8,7.51,1.17,1.41,0,*7A
1536667415.37,20325,18.0,74566.5,7.49,1.13,0.71,0,*44
1536667416.61,20326,18.0,74566.0,7.47,-1.39,-1.55,0,*76
1536667417.78,20327,18.0,74566.3,7.41,-0.49,-0.69,0,*79
1536667419.01,20328,18.0,74560.3,7.41,1.47,1.37,0,*73
1536667420.24,20329,18.0,74560.5,7.41,1.25,1.21,0,*71
1536667421.46,20330,18.0,74570.0,7.41,2.05,2.09,0,*71
1536667422.68,20331,18.0,74572.0,7.41,1.97,1.97,0,*7C
1536667423.93,20332,18.0,74568.8,7.43,1.63,1.85,0,*75
1536667425.15,20333,18.0,74570.3,7.43,2.09,2.31,0,*77
1536667426.38,20334,18.0,74582.3,7.43,1.63,1.83,0,*75
1536667427.63,20335,18.0,74582.8,7.43,1.37,1.43,0,*79
1536667428.88,20336,18.0,74584.0,7.43,1.43,1.63,0,*7B
1536667430.1,20337,18.0,74586.5,7.41,1.59,1.85,0,*7B
1536667431.35,20338,18.0,74578.5,7.47,1.37,1.47,0,*74
1536667432.59,20339,18.0,74582.8,7.47,1.55,1.75,0,*70
1536667433.83,20340,18.0,74578.5,7.47,1.25,1.47,0,*78
1536667435.06,20341,18.0,74582.0,7.43,2.43,2.65,0,*7D
1536667436.32,20342,18.0,74590.0,7.49,2.47,2.69,0,*7C
1536667437.55,20343,18.0,74594.3,7.49,2.13,2.35,0,*75
1536667438.78,20344,18.0,74588.8,7.49,2.47,2.61,0,*72
1536667440.02,20345,18.0,74584.0,7.49,1.55,1.79,0,*79
1536667441.24,20346,18.0,74584.8,7.47,2.21,2.35,0,*7F
1536667442.5,20347,18.0,74590.8,7.49,2.39,2.73,0,*7B
1536667443.75,20348,18.0,74578.0,7.49,1.51,1.67,0,*7F
1536667444.95,20349,18.0,74586.8,7.51,1.51,1.79,0,*78
1536667446.19,20350,18.0,74582.8,7.49,0.67,0.83,0,*79
1536667447.42,20351,18.0,74582.5,7.47,-1.21,-0.97,0,*40
1536667448.6,20352,18.0,74584.8,7.41,-0.33,-0.11,0,*79
1536667449.78,20353,18.0,74586.8,7.41,0.67,0.97,0,*77
1536667451.0,20354,18.0,74588.5,7.41,1.63,2.05,0,*7C
1536667452.23,20355,18.0,74588.5,7.41,2.43,2.81,0,*70
1536667453.48,20356,18.0,74592.0,7.43,2.25,2.59,0,*74
1536667454.7,20357,18.0,74592.5,7.41,1.25,1.43,0,*7C
1536667455.96,20358,18.0,74588.0,7.43,1.13,1.59,0,*7F
1536667457.18,20359,18.0,74590.8,7.41,1.25,1.71,0,*73
1536667458.39,20360,18.0,74590.0,7.41,1.51,1.97,0,*72
1536667459.59,20361,18.0,74586.0,7.39,1.05,1.41,0,*76
1536667460.84,20362,18.0,74586.0,7.39,0.75,1.21,0,*45
1536667462.02,20363,18.0,74584.3,7.37,-0.57,-0.19,0,*70
1536667463.23,20364,18.0,74584.3,7.33,-1.25,-0.93,0,*45
1536667464.45,20365,18.0,74586.0,7.33,0.13,0.55,0,*7A
1536667465.69,20366,18.0,74584.0,7.31,0.13,0.47,0,*78
1536667466.91,20367,18.0,74582.0,7.27,-0.93,-0.65,0,*76
1536667468.09,20368,18.0,74580.5,7.25,-0.41,0.05,0,*6F
1536667469.32,20369,18.0,74584.0,7.19,0.37,0.71,0,*7E
1536667470.56,20370,18.0,74582.3,7.19,0.21,0.59,0,*7B
1536667471.79,20371,18.0,74586.0,7.17,-1.09,-0.89,0,*42
1536667473.06,20372,18.06,74582.0,7.15,-2.07,-1.91,0,*76
1536667474.27,20373,18.0,74576.8,7.11,-1.55,-1.25,0,*78
1536667475.48,20374,18.0,74576.5,7.07,-0.45,-0.11,0,*7E
1536667476.71,20375,18.0,74580.8,7.07,-0.45,-0.23,0,*7E
1536667477.91,20376,18.0,74572.3,7.03,-0.41,-0.07,0,*4B
1536667479.13,20377,18.0,74578.5,7.03,-0.03,0.33,0,*66
1536667480.39,20378,18.0,74580.8,6.99,1.13,1.47,0,*74
1536667481.65,20379,18.0,74582.0,6.99,1.97,2.13,0,*7B
1536667482.9,20380,18.0,74584.8,6.99,2.13,2.43,0,*77
1536667484.13,20381,18.0,74590.0,7.05,2.59,2.85,0,*76
1536667485.39,20382,18.06,74592.0,7.07,2.55,2.81,0,*7F
1536667486.62,20383,18.0,74590.3,7.07,2.65,2.89,0,*75
1536667487.87,20384,18.0,74590.0,7.11,2.69,2.81,0,*71
1536667489.09,20385,18.0,74586.0,7.13,2.73,2.85,0,*7D
1536667490.32,20386,18.0,74588.0,7.17,2.73,2.77,0,*77
1536667491.52,20387,18.0,74584.3,7.17,2.91,3.03,0,*78
1536667492.72,20388,18.0,74586.5,7.17,2.77,2.91,0,*75
1536667493.96,20389,18.0,74588.3,7.21,3.15,3.15,0,*79
1536667495.21,20390,18.0,74582.5,7.27,3.23,3.19,0,*7E
1536667496.44,20391,18.0,74580.8,7.27,2.95,3.07,0,*7C
1536667497.69,20392,18.0,74582.0,7.31,2.01,1.93,0,*7A
1536667498.92,20393,18.0,74582.5,7.31,2.51,2.61,0,*70
1536667500.13,20394,18.0,74580.0,7.33,2.35,2.43,0,*77
1536667501.35,20395,18.0,74578.8,7.35,1.25,1.41,0,*73
1536667502.59,20396,18.0,74582.8,7.33,1.21,1.25,0,*70
1536667503.82,20397,18.0,74584.8,7.33,1.33,1.47,0,*76
1536667505.05,20398,18.0,74596.0,7.35,1.41,1.55,0,*79
1536667506.26,20399,18.06,74590.3,7.33,0.29,0.29,0,*7B
1536667507.45,20400,18.0,74570.0,7.33,-0.19,-0.07,0,*43
1536667508.67,20401,18.0,74566.0,7.31,-0.11,-0.23,0,*7E
1536667509.88,20402,18.0,74576.5,7.31,2.31,2.65,0,*7D
1536667511.12,20403,18.0,74572.3,7.33,3.15,3.49,0,*76
1536667512.31,20404,18.0,74586.8,7.35,3.55,3.85,0,*73
1536667513.51,20405,18.0,74584.0,7.37,3.33,3.63,0,*78
1536667514.74,20406,18.0,74586.8,7.39,3.49,3.85,0,*70
1536667515.96,20407,18.0,74584.8,7.43,3.71,4.07,0,*7A
1536667517.2,20408,18.0,74578.0,7.49,4.05,4.33,0,*7C
1536667518.41,20409,18.0,74580.3,7.53,3.89,4.11,0,*75
1536667519.62,20410,18.0,74584.3,7.53,3.81,4.11,0,*75
1536667520.87,20411,18.0,74592.0,7.57,3.23,3.53,0,*79
1536667522.12,20412,18.0,74598.3,7.57,3.41,3.67,0,*79
1536667523.39,20413,18.0,74598.8,7.61,2.17,2.51,0,*7B
1536667524.62,20414,18.0,74584.5,7.59,2.05,2.39,0,*7A
1536667525.87,20415,18.0,74576.3,7.61,1.55,1.63,0,*7A
1536667527.13,20416,18.0,74574.5,7.61,1.93,2.13,0,*77
1536667528.39,20417,18.0,74590.5,7.61,3.71,4.05,0,*79
1536667529.64,20418,18.06,74584.3,7.65,3.75,4.01,0,*72
1536667530.85,20419,18.0,74584.3,7.65,3.93,4.23,0,*7B
1536667532.05,20420,18.0,74584.3,7.71,4.41,4.75,0,*7F
1536667533.23,20421,18.06,74586.0,7.75,2.91,3.25,0,*73
1536667534.46,20422,18.0,74582.0,7.75,2.81,3.15,0,*72
1536667535.63,20423,18.0,74580.8,7.75,4.33,4.89,0,*7E
1536667536.84,20424,18.0,74582.3,7.81,4.63,5.29,0,*7C
1536667538.06,20425,18.06,74586.8,7.83,4.75,5.45,0,*72
1536667539.3,20426,18.0,74584.8,7.87,4.19,4.79,0,*71
1536667540.51,20427,18.0,74584.0,7.93,4.71,5.45,0,*75
1536667541.72,20428,18.0,74584.0,7.89,4.67,5.59,0,*7B
1536667542.91,20429,18.0,74588.0,7.97,5.23,6.03,0,*78
1536667544.1,20430,18.0,74588.3,8.01,4.37,5.19,0,*7C
1536667545.28,20431,18.0,74590.5,8.01,5.19,6.07,0,*7C
1536667546.45,20432,18.0,74588.5,8.05,5.45,6.33,0,*75
1536667547.64,20433,18.0,74590.3,8.09,5.27,6.11,0,*7C
1536667548.85,20434,18.0,74586.8,8.11,5.19,6.11,0,*7F
1536667550.05,20435,18.0,74590.0,8.15,4.97,5.95,0,*72
1536667551.25,20436,18.0,74590.0,8.19,4.89,5.81,0,*77
1536667552.48,20437,18.06,74592.5,8.23,4.93,5.93,0,*77
1536667553.65,20438,18.0,74584.8,8.23,5.11,6.03,0,*79
1536667554.91,20439,18.0,74590.0,8.25,4.59,5.51,0,*77
1536667556.14,20440,18.06,74590.5,8.27,4.31,4.97,0,*7E
1536667557.37,20441,18.0,74586.3,8.29,3.81,4.63,0,*76
1536667558.55,20442,18.0,74588.8,8.31,3.81,4.53,0,*7F
1536667559.72,20443,18.0,74590.0,8.31,4.11,4.89,0,*77
1536667560.92,20444,18.06,74588.8,8.31,4.19,4.93,0,*73
1536667562.12,20445,18.06,74594.3,8.31,4.41,5.05,0,*71
1536667563.37,20446,18.06,74594.0,8.33,5.05,5.85,0,*79
1536667564.55,20447,18.0,74594.5,8.35,4.27,4.85,0,*7E
1536667565.78,20448,18.0,74592.5,8.35,3.41,3.79,0,*72
1536667567.01,20449,18.0,74586.3,8.35,2.13,2.51,0,*7E
1536667568.26,20450,18.0,74584.5,8.33,2.39,2.69,0,*73
1536667569.52,20451,18.0,74584.0,8.33,2.39,2.89,0,*7C
1536667570.74,20452,18.0,74584.8,8.31,3.41,3.97,0,*7D
1536667571.96,20453,18.0,74590.5,8.29,3.45,4.27,0,*7D
1536667573.17,20454,18.0,74594.8,8.31,2.47,3.25,0,*75
1536667574.43,20455,18.0,74590.8,8.29,2.17,2.77,0,*7E
1536667575.62,20456,18.06,74590.5,8.27,2.01,2.27,0,*71
1536667576.88,20457,18.0,74584.0,8.25,2.47,2.81,0,*7C
1536667578.08,20458,18.0,74582.3,8.21,1.75,1.83,0,*74
1536667579.32,20459,18.0,74586.8,8.19,1.21,1.33,0,*74
1536667580.55,20460,18.0,74586.8,8.17,2.27,2.51,0,*72
1536667581.81,20461,18.0,74586.8,8.11,1.37,1.51,0,*74
1536667583.05,20462,18.0,74582.0,8.07,0.63,0.63,0,*70
1536667584.3,20463,18.0,74584.8,8.03,1.67,2.17,0,*71
1536667585.5,20464,18.06,74584.8,8.01,3.25,3.53,0,*71
1536667586.73,20465,18.0,74576.8,8.01,3.03,3.19,0,*7A
1536667587.95,20466,18.0,74582.8,7.99,3.49,3.63,0,*74
1536667589.15,20467,18.06,74586.8,7.99,4.07,4.19,0,*72
1536667590.38,20468,18.06,74582.8,7.99,4.57,4.67,0,*71
1536667591.57,20469,18.0,74580.5,8.01,4.11,4.33,0,*7D
1536667592.74,20470,18.0,74580.3,8.01,3.63,4.07,0,*70
1536667593.95,20471,18.06,74588.0,8.01,4.49,5.01,0,*79
1536667595.19,20472,18.0,74584.0,8.03,4.63,5.19,0,*79
1536667596.43,20473,18.0,74580.5,8.03,4.41,4.71,0,*77
1536667597.66,20474,18.06,74586.8,8.03,3.71,3.93,0,*7F
1536667598.87,20475,18.0,74580.5,8.03,3.93,4.23,0,*7E
1536667600.06,20476,18.0,74582.8,8.05,3.55,3.71,0,*71
1536667601.32,20477,18.0,74586.5,8.03,3.79,4.01,0,*78
1536667602.52,20478,18.0,74584.5,8.05,4.01,4.33,0,*78
1536667603.78,20479,18.06,74590.3,8.03,3.71,4.05,0,*7A
1536667605.04,20480,18.0,74580.5,8.03,3.11,3.45,0,*79
1536667606.27,20481,18.0,74580.8,8.03,3.79,4.11,0,*70
1536667607.47,20482,18.06,74580.3,8.01,4.49,4.79,0,*7B
1536667608.67,20483,18.06,74582.5,8.01,4.45,4.59,0,*74
1536667609.88,20484,18.06,74578.5,8.01,4.57,4.67,0,*7D
1536667611.1,20485,18.0,74574.0,7.99,4.45,4.63,0,*75
1536667612.28,20486,18.0,74578.3,8.01,4.07,4.19,0,*73
1536667613.46,20487,18.0,74578.3,8.01,4.11,4.11,0,*7D
1536667614.66,20488,18.06,74578.5,7.99,3.81,3.85,0,*78
1536667615.89,20489,18.06,74582.5,8.01,3.67,3.75,0,*70
1536667617.1,20490,18.0,74578.0,7.99,4.07,4.15,0,*76
1536667618.28,20491,18.06,74584.3,8.01,4.37,4.49,0,*73
1536667619.53,20492,18.06,74586.5,7.99,3.37,3.33,0,*73
1536667620.76,20493,18.0,74568.5,7.97,2.55,2.43,0,*7F
1536667622.01,20494,18.06,74556.0,7.95,1.43,1.43,0,*7D
1536667623.22,20495,18.0,74548.3,7.89,2.55,2.65,0,*72
1536667624.48,20496,18.0,74552.3,7.87,2.17,2.21,0,*79
1536667625.69,20497,18.0,74556.8,7.85,2.99,3.03,0,*7D
1536667626.92,20498,18.06,74556.3,7.85,3.11,3.03,0,*73
1536667628.12,20499,18.0,74566.8,7.83,3.59,3.59,0,*77
1536667629.33,20500,18.0,74560.3,7.83,3.81,3.89,0,*7E
1536667630.55,20501,18.06,74558.0,7.83,3.59,3.79,0,*75
1536667631.79,20502,18.06,74570.0,7.83,3.79,3.81,0,*73
1536667632.97,20503,18.06,74578.3,7.81,4.15,4.19,0,*7B
1536667634.18,20504,18.0,74584.0,7.85,4.31,4.33,0,*76
1536667635.44,20505,18.0,74578.5,7.83,3.67,3.71,0,*74
1536667636.66,20506,18.06,74590.3,7.83,4.01,4.15,0,*75
1536667637.92,20507,18.0,74594.0,7.83,4.59,4.63,0,*78
1536667639.13,20508,18.06,74592.0,7.87,4.45,4.57,0,*79
1536667640.34,20509,18.06,74590.3,7.87,4.07,4.23,0,*7D
1536667641.58,20510,18.06,74584.5,7.87,4.05,4.23,0,*77
1536667642.83,20511,18.06,74586.3,7.87,3.33,3.53,0,*74
1536667644.04,20512,18.06,74588.0,7.87,3.59,3.81,0,*74
1536667645.3,20513,18.06,74588.8,7.87,2.39,2.55,0,*7A
1536667646.5,20514,18.06,74586.3,7.85,2.09,2.31,0,*7E
1536667647.74,20515,18.0,74584.3,7.85,2.43,2.77,0,*73
1536667648.94,20516,18.06,74584.3,7.85,3.75,4.19,0,*7A
1536667650.18,20517,18.06,74584.3,7.85,4.63,4.79,0,*7D
1536667651.42,20518,18.0,74580.3,7.87,4.45,4.75,0,*78
1536667652.68,20519,18.0,74586.3,7.87,4.63,4.75,0,*7D
1536667653.88,20520,18.0,74572.0,7.89,4.45,4.59,0,*73
1536667655.12,20521,18.0,74582.3,7.93,4.05,4.05,0,*74
1536667656.33,20522,18.06,74580.3,7.93,4.81,4.71,0,*78
1536667657.54,20523,18.0,74582.3,7.95,4.27,4.23,0,*74
1536667658.78,20524,18.0,74580.5,7.97,4.75,4.75,0,*75
1536667659.98,20525,18.0,74584.5,7.95,4.85,4.85,0,*76
1536667661.24,20526,18.06,74584.8,7.99,4.67,4.79,0,*76
1536667662.46,20527,18.0,74586.5,7.99,4.31,4.27,0,*7F
1536667663.72,20528,18.0,74586.0,7.99,4.79,4.75,0,*7B
1536667664.92,20529,18.06,74586.3,8.01,4.79,4.81,0,*7F
1536667666.15,20530,18.06,74584.0,8.05,4.59,4.63,0,*7D
1536667667.35,20531,18.0,74582.8,8.03,4.49,4.49,0,*73
1536667668.6,20532,18.0,74586.5,8.07,4.97,4.97,0,*74
1536667669.83,20533,18.0,74582.0,8.07,4.85,4.79,0,*76
1536667671.03,20534,18.06,74584.0,8.07,5.11,5.07,0,*75
1536667672.26,20535,18.06,74588.0,8.09,4.67,4.67,0,*7D
1536667673.5,20536,18.06,74584.3,8.09,4.71,4.67,0,*79
1536667674.68,20537,18.06,74588.5,8.09,4.45,4.45,0,*7F
1536667675.91,20538,18.06,74590.3,8.11,4.59,4.45,0,*74
1536667677.16,20539,18.0,74584.0,8.11,4.59,4.59,0,*78
1536667678.36,20540,18.06,74590.0,8.15,4.85,4.93,0,*75
1536667679.62,20541,18.0,74584.3,8.17,4.97,4.97,0,*71
1536667680.82,20542,18.0,74586.5,8.15,4.31,4.27,0,*77
1536667681.98,20543,18.06,74586.0,8.15,4.49,4.27,0,*79
1536667683.19,20544,18.06,74586.0,8.17,4.15,4.07,0,*77
1536667684.4,20545,18.06,74586.8,8.17,4.07,3.93,0,*7F
1536667685.6,20546,18.0,74582.5,8.17,4.19,4.19,0,*76
1536667686.86,20547,18.06,74586.3,8.17,4.63,4.63,0,*77
1536667688.04,20548,18.0,74580.8,8.19,5.11,5.07,0,*71
1536667689.25,20549,18.06,74586.8,8.19,4.79,4.37,0,*7D
1536667690.46,20550,18.06,74586.0,8.19,3.85,3.71,0,*74
1536667691.66,20551,18.0,74584.5,8.21,4.45,4.53,0,*72
1536667692.83,20552,18.06,74588.3,8.19,4.49,4.49,0,*7D
1536667694.03,20553,18.06,74584.5,8.21,4.57,4.57,0,*77
1536667695.23,20554,18.06,74586.5,8.23,4.33,4.31,0,*70
1536667696.43,20555,18.0,74586.3,8.21,4.41,4.53,0,*72
1536667697.66,20556,18.06,74586.0,8.23,4.59,4.67,0,*7D
1536667698.92,20557,18.06,74588.3,8.25,4.93,4.93,0,*77
1536667700.17,20558,18.06,74588.5,8.25,4.75,4.75,0,*78
1536667701.38,20559,18.06,74586.8,8.25,4.33,4.33,0,*79
1536667702.59,20560,18.06,74586.3,8.27,4.31,4.41,0,*76
1536667703.82,20561,18.06,74584.3,8.29,4.89,5.01,0,*7F
1536667705.06,20562,18.06,74584.3,8.29,4.89,4.97,0,*72
1536667706.23,20563,18.06,74584.5,8.31,4.33,4.41,0,*70
1536667707.4,20564,18.06,74580.8,8.31,3.81,3.85,0,*76
1536667708.6,20565,18.06,74582.5,8.29,4.49,4.49,0,*7A
1536667709.78,20566,18.06,74584.3,8.31,4.33,4.33,0,*70
1536667710.98,20567,18.06,74586.0,8.29,4.49,4.53,0,*73
1536667712.15,20568,18.06,74588.5,8.31,4.53,4.57,0,*7A
1536667713.38,20569,18.0,74584.8,8.31,4.63,4.71,0,*7C
1536667714.56,20570,18.06,74588.0,8.31,4.89,4.89,0,*77
1536667715.82,20571,18.06,74590.8,8.33,4.71,4.71,0,*74
1536667717.02,20572,18.06,74592.0,8.39,4.89,4.93,0,*76
1536667718.22,20573,18.06,74592.5,8.33,4.11,4.19,0,*7E
1536667719.46,20574,18.06,74592.8,8.35,4.71,4.71,0,*77
1536667720.69,20575,18.06,74592.0,8.33,4.31,4.33,0,*72
1536667721.86,20576,18.06,74590.5,8.35,3.63,3.63,0,*75
1536667723.09,20577,18.06,74588.0,8.35,3.97,4.01,0,*7C
1536667724.31,20578,18.0,74590.3,8.35,3.19,3.23,0,*72
1536667725.53,20579,18.06,74594.0,8.35,3.15,3.19,0,*76
1536667726.73,20580,18.06,74590.5,8.33,2.99,2.99,0,*7A
1536667727.99,20581,18.06,74594.5,8.29,2.39,2.51,0,*7E
1536667729.22,20582,18.0,74588.3,8.29,2.35,2.51,0,*71
1536667730.42,20583,18.06,74592.0,8.27,2.99,3.11,0,*7D
1536667731.67,20584,18.06,74592.3,8.25,3.11,3.19,0,*71
1536667732.87,20585,18.06,74592.0,8.25,3.29,3.29,0,*78
1536667734.07,20586,18.06,74588.8,8.27,3.81,3.79,0,*7E
1536667735.33,20587,18.06,74592.3,8.25,3.75,3.75,0,*7A